INTELSAT 34 (IS-34) (40874 NORAD) Tracking and Keplerian Element Data

This shows tracking and keplerian element data for the satellite.

Feedback or suggestion? Click here.




ElementValue
Catalog40874
NameINTELSAT 34 (IS-34)
Epoch Orbit3220
Epoch Day158.99424277
Epoch Year2024
RAAN11.8287
Inclination0.0243
Eccentricity5.52E-05
Argument of Perigee308.7336
Mean Anonmoly237.7541
Mean Motion1.00271288
Decay Rate-2.84E-06
L11 40874U 15039A 24158.99424277 -.00000284 00000+0 00000+0 0 9998
L22 40874 0.0243 11.8287 0000552 308.7336 237.7541 1.00271288 32208



Live tracking and technical data element details for INTELSAT 34 (IS-34) (NORAD 40874). INTELSAT 34 (IS-34) can be tracked NOW for your location showing map with azimuth and elevation plus other details from your city location.







IsCatalogInMostPopularTable: catalog: 40874, numindb: 695
Update: records affected: 1



GetName: 40874 INTELSAT 34 (IS-34)

Hit Count: updated at: Sun, 23 Jun 2024 02:47:49 GMT